Elmira, NY

7:02 AM EDT on April 24, 2018 (GMT -0400)
Elmira-Corning Regional

Weather History for KELM - December, 2012

Change the Weather History Date:

Thursday, December 6, 2012

  Actual Average Record
Temperature  
Mean Temperature 29 °F -  
Max Temperature 37 °F 40 °F 69 °F (1998)
Min Temperature 21 °F 22 °F 1 °F (1971)
Degree Days  
Heating Degree Days 36    
Moisture  
Dew Point 18 °F    
Average Humidity 62    
Maximum Humidity 82    
Minimum Humidity 47    
Precipitation  
Precipitation 0.00 in - - ()
Sea Level Pressure  
Sea Level Pressure 30.29 in    
Wind  
Wind Speed 3 mph (ENE)    
Max Wind Speed 6 mph    
Max Gust Speed -    
Visibility 10 miles    
Events      
Averages and records for this station are not official NWS values.
T = Trace of Precipitation, MM = Missing Value Source: NWS Daily Summary

Daily Weather History Graph

Daily Weather History Graph

Search for Another Location

Airport or City:

Astronomy

Dec. 06, 2012 Rise Set
Actual Time 7:21 AM EST 4:35 PM EST
Civil Twilight 6:50 AM EST 5:07 PM EST
Nautical Twilight 6:15 AM EST 5:42 PM EST
Astronomical Twilight 5:41 AM EST 6:16 PM EST
Moon No Moon Rise 12:07 PM EST (12/6)
Length of Visible Light 10h 16m
Length of Day
9h 13m
Waning Gibbous, 49% of the Moon is Illuminated
Dec 6
Waning Gibbous
Dec 13
New
Dec 20
First Quarter
Dec 28
Full
Jan 4
Last Quarter

Hourly Weather History & Observations

Time (EST) Temp. Windchill Dew Point Humidity Pressure Visibility Wind Dir Wind Speed Gust Speed Precip Events Conditions
12:53 AM 28.9 °F 22.8 °F 16.0 °F 58% 30.36 in 10.0 mi North 5.8 mph - N/A   Overcast
1:53 AM 28.0 °F 21.7 °F 17.1 °F 63% 30.37 in 10.0 mi North 5.8 mph - N/A   Overcast
2:53 AM 28.0 °F - 17.1 °F 63% 30.38 in 10.0 mi Calm Calm - N/A   Overcast
3:53 AM 28.0 °F 21.7 °F 16.0 °F 61% 30.39 in 10.0 mi North 5.8 mph - N/A   Overcast
4:53 AM 27.0 °F 21.6 °F 15.1 °F 61% 30.39 in 10.0 mi NNW 4.6 mph - N/A   Scattered Clouds
5:53 AM 23.0 °F 18.4 °F 15.1 °F 72% 30.39 in 10.0 mi WNW 3.5 mph - N/A   Clear
6:53 AM 24.1 °F - 17.1 °F 75% 30.40 in 10.0 mi Calm Calm - N/A   Clear
7:53 AM 21.9 °F - 17.1 °F 82% 30.40 in 10.0 mi Calm Calm - N/A   Clear
8:53 AM 26.1 °F - 18.0 °F 71% 30.38 in 10.0 mi Calm Calm - N/A   Clear
9:53 AM 30.0 °F - 18.0 °F 61% 30.38 in 10.0 mi Calm Calm - N/A   Clear
10:53 AM 32.0 °F 28.7 °F 19.0 °F 59% 30.36 in 10.0 mi Variable 3.5 mph - N/A   Clear
11:53 AM 34.0 °F - 19.0 °F 54% 30.32 in 10.0 mi Calm Calm - N/A   Clear
12:53 PM 37.0 °F 33.3 °F 19.9 °F 50% 30.28 in 10.0 mi ESE 4.6 mph - N/A   Clear
1:53 PM 37.9 °F 33.5 °F 19.0 °F 47% 30.25 in 10.0 mi SE 5.8 mph - N/A   Clear
2:53 PM 37.9 °F - 19.9 °F 48% 30.24 in 10.0 mi Calm Calm - N/A   Clear
3:53 PM 37.0 °F 33.3 °F 19.9 °F 50% 30.22 in 10.0 mi ESE 4.6 mph - N/A   Clear
4:53 PM 34.0 °F 29.8 °F 19.9 °F 56% 30.22 in 10.0 mi ESE 4.6 mph - N/A   Clear
5:53 PM 35.1 °F 32.2 °F 19.0 °F 52% 30.22 in 10.0 mi ESE 3.5 mph - N/A   Clear
6:53 PM 28.9 °F - 19.9 °F 69% 30.22 in 10.0 mi Calm Calm - N/A   Clear
7:53 PM 34.0 °F 28.8 °F 19.0 °F 54% 30.19 in 10.0 mi SSE 5.8 mph - N/A   Clear
8:53 PM 28.0 °F - 19.9 °F 72% 30.19 in 10.0 mi Calm Calm - N/A   Clear
9:53 PM 30.0 °F - 21.9 °F 72% 30.18 in 10.0 mi Calm Calm - N/A   Clear
10:53 PM 28.9 °F - 21.0 °F 72% 30.17 in 10.0 mi Calm Calm - N/A   Clear
11:53 PM 30.9 °F - 19.0 °F 61% 30.15 in 10.0 mi Calm Calm - N/A   Clear